DF1LON Weather Reports


time (UTC)temp
C
wind
direction
speed
KPH
gust
KPH
rain 1hr
cm
rain 24hr
cm
rain mn
cm
humidity
%
barometer
mb
20260502163201 22 68 6.4 8.0 0.00 0.00 0.00 5 1011.8
20260502162202 23 68 3.2 3.2 0.00 0.00 0.00 5 1012.8
20260502161202 23 68 0.0 0.0 0.00 0.00 0.00 5 1012.8
20260502160202 23 68 0.0 0.0 0.00 0.00 0.00 5 1012.8
20260502152202 22 248 0.0 0.0 0.00 0.00 0.00 6 1013.8
20260502151202 22 248 0.0 0.0 0.00 0.00 0.00 7 1013.8
20260502150202 20 248 0.0 0.0 0.00 0.00 0.00 8 1013.8
20260502130202 23 158 1.6 1.6 0.00 0.00 0.00 5 1014.9
20260502123201 24 202 9.7 9.7 0.00 0.00 0.00 5 1014.9
20260502122202 24 158 3.2 4.8 0.00 0.00 0.00 5 1015.9
20260502121202 23 202 0.0 0.0 0.00 0.00 0.00 5 1015.9
20260502120202 23 202 11.3 11.3 0.00 0.00 0.00 5 1015.9
20260502115202 23 158 12.9 14.5 0.00 0.00 0.00 5 1015.9
20260502114202 23 225 8.0 8.0 0.00 0.00 0.00 5 1015.9
20260502113202 23 180 9.7 9.7 0.00 0.00 0.00 5 1015.9
20260502112202 23 202 9.7 9.7 0.00 0.00 0.00 5 1015.9
20260502111202 23 202 11.3 11.3 0.00 0.00 0.00 5 1015.9
20260502110201 22 158 3.2 3.2 0.00 0.00 0.00 5 1015.9
20260502105202 22 225 8.0 8.0 0.00 0.00 0.00 5 1016.9
20260502104202 22 158 6.4 6.4 0.00 0.00 0.00 5 1016.9
20260502103202 22 248 9.7 9.7 0.00 0.00 0.00 5 1016.9
20260502102203 22 180 0.0 0.0 0.00 0.00 0.00 5 1016.9
20260502101202 21 202 0.0 0.0 0.00 0.00 0.00 5 1016.9
20260502100201 21 158 0.0 0.0 0.00 0.00 0.00 5 1016.9
20260502091202 19 180 6.4 6.4 0.00 0.00 0.00 5 1017.9
20260502090202 18 180 6.4 6.4 0.00 0.00 0.00 5 1017.9
20260502071202 16 202 9.7 11.3 0.00 0.00 0.00 5 1017.9
20260502070202 16 135 9.7 9.7 0.00 0.00 0.00 5 1017.9
20260502065201 15 158 1.6 1.6 0.00 0.00 0.00 5 1017.9
20260502064202 16 112 12.9 14.5 0.00 0.00 0.00 5 1016.9
20260502063202 16 135 11.3 11.3 0.00 0.00 0.00 5 1016.9
20260502062201 15 135 11.3 11.3 0.00 0.00 0.00 5 1017.9
20260502061202 15 158 9.7 9.7 0.00 0.00 0.00 5 1016.9
20260502060202 14 135 6.4 8.0 0.00 0.00 0.00 5 1016.9
20260502055202 13 135 9.7 9.7 0.00 0.00 0.00 5 1017.9
20260502054202 13 135 3.2 4.8 0.00 0.00 0.00 6 1017.9
20260502053202 13 158 3.2 3.2 0.00 0.00 0.00 6 1017.9
20260502052201 13 180 0.0 0.0 0.00 0.00 0.00 6 1017.9
20260502051202 12 135 0.0 0.0 0.00 0.00 0.00 6 1017.9
20260502050202 12 135 9.7 9.7 0.00 0.00 0.00 6 1017.9
20260502045202 12 135 8.0 8.0 0.00 0.00 0.00 6 1017.9
20260502044202 11 135 0.0 0.0 0.00 0.00 0.00 6 1017.9
20260502043202 11 135 0.0 0.0 0.00 0.00 0.00 6 1017.9
20260502042202 11 135 0.0 0.0 0.00 0.00 0.00 6 1017.9
20260502041202 11 135 0.0 0.0 0.00 0.00 0.00 6 1017.9
20260502040202 11 135 0.0 0.0 0.00 0.00 0.00 6 1017.9
20260502035202 12 135 0.0 0.0 0.00 0.00 0.00 6 1017.9
20260502034202 11 135 3.2 4.8 0.00 0.00 0.00 6 1017.9
20260502033202 11 135 0.0 0.0 0.00 0.00 0.00 6 1017.9
20260502032202 12 158 0.0 0.0 0.00 0.00 0.00 6 1017.9
20260502031202 12 158 4.8 4.8 0.00 0.00 0.00 6 1017.9
20260502030201 12 158 0.0 0.0 0.00 0.00 0.00 6 1017.9
20260502025202 12 158 0.0 0.0 0.00 0.00 0.00 6 1017.9
20260502024202 12 225 0.0 0.0 0.00 0.00 0.00 6 1017.9
20260502023202 12 135 0.0 0.0 0.00 0.00 0.00 6 1017.9
20260502022202 13 135 0.0 0.0 0.00 0.00 0.00 6 1017.9
20260502021202 13 135 0.0 0.0 0.00 0.00 0.00 6 1017.9
20260502020202 13 158 8.0 8.0 0.00 0.00 0.00 5 1017.9
20260502015202 13 158 0.0 0.0 0.00 0.00 0.00 5 1017.9
20260502014202 13 135 9.7 11.3 0.00 0.00 0.00 5 1017.9
20260502013202 13 135 0.0 0.0 0.00 0.00 0.00 5 1017.9
20260502012202 13 135 0.0 0.0 0.00 0.00 0.00 5 1018.9
20260502011202 13 135 0.0 0.0 0.00 0.00 0.00 5 1018.9
20260502010201 14 135 0.0 0.0 0.00 0.00 0.00 5 1018.9
20260502005202 14 135 11.3 11.3 0.00 0.00 0.00 5 1018.9
20260502004201 14 158 0.0 0.0 0.00 0.00 0.00 5 1018.9
20260502003202 14 158 0.0 0.0 0.00 0.00 0.00 5 1018.9
20260502002202 15 135 8.0 8.0 0.00 0.00 0.00 5 1018.9
20260502001202 15 135 6.4 6.4 0.00 0.00 0.00 5 1018.9
20260502000203 15 135 9.7 9.7 0.00 0.00 0.00 5 1018.9
20260501235202 15 135 8.0 8.0 0.00 0.00 0.00 5 1018.9
20260501234202 15 135 8.0 8.0 0.00 0.00 0.00 5 1019.9
20260501233202 15 135 0.0 0.0 0.00 0.00 0.00 5 1019.9
20260501232202 15 135 0.0 0.0 0.00 0.00 0.00 5 1019.9
20260501231202 15 135 0.0 0.0 0.00 0.00 0.00 5 1019.9
20260501230202 15 112 0.0 0.0 0.00 0.00 0.00 5 1019.9
20260501225202 15 112 0.0 0.0 0.00 0.00 0.00 5 1019.9
20260501224203 15 112 0.0 0.0 0.00 0.00 0.00 5 1019.9
20260501223202 15 112 0.0 0.0 0.00 0.00 0.00 5 1019.9
20260501222202 16 112 0.0 0.0 0.00 0.00 0.00 5 1019.9
20260501221202 16 112 0.0 0.0 0.00 0.00 0.00 4 1019.9
20260501220202 16 112 0.0 0.0 0.00 0.00 0.00 4 1019.9
20260501215203 16 112 0.0 0.0 0.00 0.00 0.00 4 1019.9
20260501214202 16 112 0.0 0.0 0.00 0.00 0.00 4 1019.9
20260501213202 16 112 0.0 0.0 0.00 0.00 0.00 4 1019.9
20260501212202 17 112 0.0 0.0 0.00 0.00 0.00 4 1019.9
20260501211202 17 112 0.0 0.0 0.00 0.00 0.00 4 1019.9
20260501210202 17 112 0.0 0.0 0.00 0.00 0.00 4 1019.9
20260501205202 18 112 0.0 0.0 0.00 0.00 0.00 4 1019.9
20260501204202 18 112 0.0 0.0 0.00 0.00 0.00 3 1019.9
20260501203202 18 135 0.0 0.0 0.00 0.00 0.00 3 1019.9
20260501202202 18 135 0.0 0.0 0.00 0.00 0.00 3 1019.9
20260501201202 19 112 0.0 0.0 0.00 0.00 0.00 3 1019.9
20260501200202 20 112 0.0 0.0 0.00 0.00 0.00 3 1019.9
20260501194202 20 112 8.0 8.0 0.00 0.00 0.00 3 1019.9
20260501193202 20 135 8.0 8.0 0.00 0.00 0.00 3 1019.9
20260501192202 20 158 9.7 11.3 0.00 0.00 0.00 3 1019.9
20260501191202 20 112 11.3 11.3 0.00 0.00 0.00 3 1019.9
20260501190202 21 135 9.7 9.7 0.00 0.00 0.00 3 1019.9
20260501185202 21 112 8.0 8.0 0.00 0.00 0.00 3 1019.9
20260501184202 21 112 3.2 4.8 0.00 0.00 0.00 3 1019.9
20260501183202 21 135 12.9 12.9 0.00 0.00 0.00 3 1019.9
20260501182202 22 135 9.7 9.7 0.00 0.00 0.00 3 1019.9
20260501181202 22 180 12.9 14.5 0.00 0.00 0.00 3 1019.9
20260501180202 22 135 16.1 19.3 0.00 0.00 0.00 2 1019.9
20260501175201 22 158 12.9 16.1 0.00 0.00 0.00 2 1018.9
20260501174202 23 112 12.9 14.5 0.00 0.00 0.00 2 1019.9
20260501173202 23 112 14.5 16.1 0.00 0.00 0.00 2 1019.9
20260501172202 23 135 12.9 14.5 0.00 0.00 0.00 2 1018.9
20260501171201 23 135 14.5 14.5 0.00 0.00 0.00 2 1019.9
20260501170202 23 135 9.7 11.3 0.00 0.00 0.00 2 1019.9
20260501165202 23 202 11.3 11.3 0.00 0.00 0.00 2 1019.9
20260501164202 23 112 12.9 14.5 0.00 0.00 0.00 2 1019.9